Location: Central Falls
(41.8900°N, 71.3929°W)
Time: 12:19:43
(UTC+00:00)

A-11 Canister half - Pass Details

Date: 15 December 2023
Orbit: 1512 x 1687 km, 47.2° (Epoch: 20 February)

Event Time Altitude Azimuth Distance (km) Brightness Sun altitude
Rises 23:31:50 0° 184° (S) 4,639 11.7 -24.5°
Reaches altitude 10° 23:35:53 10° 168° (SSE) 3,670 11.0 -25.3°
Enters shadow 23:40:38 19° 137° (SE) 3,016 10.2 -26.1°
Maximum altitude 23:42:02 20° 126° (SE) 2,982 - -26.4°
Drops below altitude 10° 23:48:16 10° 84° (E) 3,743 - -27.5°
Sets 23:52:25 0° 69° (ENE) 4,760 - -28.3°
